Location: DARK SKY Beskydy - Park tmavé oblohy, www.darkskybeskydy.cz
(49.4926°N, 18.5016°E)
Time: 15:44:58
(UTC+02:00)

PCSat - Pass Details

Date: 07 August 2024
Orbit: 781 x 792 km, 67.0° (Epoch: 13 September)

Event Time Altitude Azimuth Distance (km) Brightness Sun altitude
Rises 04:22:02 0° 315° (NW) 3,300 12.7 -9.5°
Reaches altitude 10° 04:24:54 10° 302° (WNW) 2,366 11.8 -9.2°
Maximum altitude 04:29:02 23° 252° (WSW) 1,644 10.7 -8.6°
Drops below altitude 10° 04:33:10 10° 201° (SSW) 2,351 11.5 -8.1°
Sets 04:36:01 0° 187° (S) 3,274 12.3 -7.7°
